Weather in Chipping Campden

United Kingdom     52°03′14″N   1°46′31″W
temp.,
°C
wind,
m/s
gust,
m/s
humid.,
%
clouds,
%
prec.,
mm/h
press.,
hPa
HPBL,
m
18 april, sun
sun1801:00+1se2287100 0.0 102710
04:00+1ne0085100 0.0 102610
07:00+2ne1184100 0.0 102610
10:00+7ene2267100 0.0 1026455
13:00+10ene225788 0.0 10251112
16:00+12ne22546 0.0 10241360
19:00+9e22705 0.0 102436
22:00+4ese22731 0.0 102510
19 april, mon
mon1901:00+2ese11795 0.0 102510
04:00+1se118411 0.0 102410
07:00+2ese11829 0.0 102410
10:00+9ese11665 0.0 1023481
13:00+12se22575 0.0 10211210
16:00+13sse1158100 0.0 10201454
19:00+10sse1170100 0.0 101910
22:00+9se1170100 0.0 101910
20 april, tue
tue2001:00+8s1173100 0.0 101910
04:00+8nw1175100 0.0 101810
07:00+7nne1179100 0.0 101911
10:00+9ne1280100 0.0 1019249
13:00+12n226796 0.3 1019806
16:00+14n236078 0.1 10181380
19:00+11ne258176 0.4 1019144
22:00+7nne228781 0.0 102018
21 april, wed
wed2101:00+6nne229385 0.0 102128
04:00+4ne39976 0.0 1022205
07:00+4ne3109721 0.0 1023290
10:00+9ene677873 0.0 1024755
13:00+11ene556350 0.0 10231167
16:00+11ene4464100 0.0 10231294
19:00+9e47725 0.0 1024366
22:00+3e39831 0.0 1026149
22 april, thu
thu2201:00+1e22890 0.0 102623
04:000ene22915 0.0 102710
07:00+1ene22905 0.0 102762
10:00+7e45663 0.0 1028708
13:00+11e56564 0.0 10271065
16:00+12ese56585 0.0 10271221
19:00+10e48740 0.0 1026388
22:00+5ese512920 0.0 1028268